Location: Burbank
(38.7788°N, 114.0429°W)
Time: 14:05:16
(UTC+00:00)

Vanguard 2 Rocket - Pass Details

Date: 24 May 2026
Orbit: 553 x 3286 km, 32.9° (Epoch: 6 June)

Event Time Altitude Azimuth Distance (km) Brightness Sun altitude
Rises 20:55:08 0° 278° (W) 5,473 11.1 64.9°
Reaches altitude 10° 20:58:22 10° 273° (W) 4,788 11.0 64.4°
Maximum altitude 21:12:18 49° 204° (SSW) 3,539 11.5 62.2°
Drops below altitude 10° 21:30:54 10° 137° (SE) 6,214 11.2 59.0°
Sets 21:35:53 0° 133° (SE) 7,153 11.3 58.2°
